Waarnemingen

Advertentie
Mijn weer
Chievres, België (6432): temperatuur & dauwpunt: 21.09.2020 12:00:00 - 27.09.2020 12:00:00 (CEST)Chievres, België (6432): windsnelheid & windstoten: 21.09.2020 12:00:00 - 27.09.2020 12:00:00 (CEST)Chievres, België (6432): windrichting: 21.09.2020 12:00:00 - 27.09.2020 12:00:00 (CEST)Chievres, België (6432): luchtdruk: 21.09.2020 12:00:00 - 27.09.2020 12:00:00 (CEST)Chievres, België (6432): zicht: 21.09.2020 12:00:00 - 27.09.2020 12:00:00 (CEST)
Datum & Tijd tt [°C] td [°C] ff [km/u] ff [kn] fx [km/u] fx [kn] dd ppp [hPa] vv [km]
27.09.2020 12:00:00 - - - - - - - - -
27.09.2020 11:00:00 - - - - - - - - -
27.09.2020 10:00:00 - - - - - - - - -
27.09.2020 09:00:00 - - - - - - - - -
27.09.2020 08:00:00 - - - - - - - - -
27.09.2020 07:00:00 - - - - - - - - -
27.09.2020 06:00:00 - - - - - - - - -
27.09.2020 05:00:00 - - - - - - - - -
27.09.2020 04:00:00 - - - - - - - - -
27.09.2020 03:00:00 - - - - - - - - -
27.09.2020 02:00:00 - - - - - - - - -
27.09.2020 01:00:00 - - - - - - - - -
27.09.2020 00:00:00 - - - - - - - - -
26.09.2020 23:00:00 - - - - - - - - -
26.09.2020 22:00:00 - - - - - - - - -
26.09.2020 21:00:00 - - - - - - - - -
26.09.2020 20:00:00 - - - - - - - - -
26.09.2020 19:00:00 - - - - - - - - -
26.09.2020 18:00:00 - - - - - - - - -
26.09.2020 17:00:00 - - - - - - - - -
26.09.2020 16:00:00 - - - - - - - - -
26.09.2020 15:00:00 - - - - - - - - -
26.09.2020 14:00:00 - - - - - - - - -
26.09.2020 13:00:00 - - - - - - - - -
26.09.2020 12:00:00 - - - - - - - - -
26.09.2020 11:00:00 - - - - - - - - -
26.09.2020 10:00:00 - - - - 0 0 - - -
26.09.2020 09:00:00 - - - - 0 0 - - -
26.09.2020 08:00:00 - - - - - - - - -
26.09.2020 07:00:00 - - - - 0 0 - - -
26.09.2020 06:00:00 9,6 8,6 29 16 47 25 W 1000,3 10
26.09.2020 05:00:00 9,7 8,5 29 16 - - WNW 1000,2 10
26.09.2020 04:00:00 9,8 8,2 36 19 65 35 WNW 1000,2 20
26.09.2020 03:00:00 9,6 8,1 40 21 65 35 WNW 1000,1 10
26.09.2020 02:00:00 9,1 8,2 32 18 - - W 1000,5 5
26.09.2020 01:00:00 9,3 7,2 36 19 65 35 W 1000,7 13
26.09.2020 00:00:00 10,7 5,6 40 21 58 31 W 1001,0 19
25.09.2020 23:00:00 10,3 6,4 40 21 - - W 1001,1 20
25.09.2020 22:00:00 10,2 7,4 32 18 61 33 W 1000,7 20
25.09.2020 21:00:00 9,4 7,7 36 19 65 35 W 1000,5 13
25.09.2020 20:00:00 9,8 7,7 36 19 - - W 1000,6 7
25.09.2020 19:00:00 10,1 7,8 29 16 50 27 W 1000,1 12
25.09.2020 18:00:00 10,3 8,4 32 18 58 31 W 999,9 13
25.09.2020 17:00:00 11,1 8,5 36 19 - - W 999,5 17
25.09.2020 16:00:00 11,6 8,6 36 19 50 27 W 998,8 20
25.09.2020 15:00:00 11,5 9,6 26 14 47 25 W 998,1 4,9
25.09.2020 14:00:00 12,4 8,8 22 12 - - W 997,7 20
25.09.2020 13:00:00 11,5 7,7 22 12 32 18 W 997,3 20
25.09.2020 12:00:00 11,1 8,5 11 6 22 12 WZW 996,9 20
25.09.2020 11:00:00 10,3 8,6 18 10 - - ZW 996,4 16
25.09.2020 10:00:00 10,3 7,6 18 10 29 16 ZZW 995,5 20
25.09.2020 09:00:00 9,5 7,3 18 10 29 16 ZZW 995,4 8
25.09.2020 08:00:00 9,3 6,7 18 10 - - Z 995,6 20
25.09.2020 07:00:00 9,1 6,5 22 12 32 18 Z 995,5 20
25.09.2020 06:00:00 9,1 6,4 22 12 32 18 Z 995,6 20
25.09.2020 05:00:00 8,2 6,3 22 12 - - ZZW 996,1 20
25.09.2020 04:00:00 8,6 6,4 14 8 29 16 ZZW 996,5 20
25.09.2020 03:00:00 8,8 7,1 18 10 29 16 ZZW 996,9 20
25.09.2020 02:00:00 9,6 7,5 18 10 - - ZZW 996,9 20
25.09.2020 01:00:00 10,5 8,7 22 12 43 23 ZW 996,7 7
25.09.2020 00:00:00 11,5 9,6 25 14 36 19 ZW 996,5 20
24.09.2020 23:00:00 12,1 9,9 25 14 - - ZZW 996,8 20
24.09.2020 22:00:00 11,7 10,5 11 6 22 12 ZZO 996,3 20
24.09.2020 21:00:00 11,6 10,7 15 8 25 14 WZW 996,8 4,6
24.09.2020 20:00:00 13,3 12,2 14 8 - - Z 997,5 7
24.09.2020 19:00:00 13,6 12,2 11 6 25 14 Z 997,9 19
24.09.2020 18:00:00 13,9 11,6 18 10 32 18 Z 999,2 16
24.09.2020 17:00:00 14,6 11,8 22 12 - - ZZO 999,6 20
24.09.2020 16:00:00 15,2 11,0 25 14 40 21 Z 1000,5 20
24.09.2020 15:00:00 16,2 9,1 25 14 50 27 Z 1001,1 20
24.09.2020 14:00:00 17,0 9,3 32 18 - - ZZW 1001,7 20
24.09.2020 13:00:00 16,6 9,9 29 16 50 27 ZZW 1002,2 18
24.09.2020 12:00:00 15,6 9,5 32 18 50 27 ZZW 1003,0 20
24.09.2020 11:00:00 14,2 8,7 25 14 - - ZZW 1003,5 20
24.09.2020 10:00:00 12,6 9,1 25 14 40 21 Z 1003,7 20
24.09.2020 09:00:00 11,0 8,7 22 12 32 18 ZZW 1004,1 20
24.09.2020 08:00:00 10,3 8,7 22 12 - - ZZW 1004,0 20
24.09.2020 07:00:00 11,3 9,4 22 12 32 18 ZZW 1004,0 20
24.09.2020 06:00:00 11,5 10,0 18 10 29 16 ZZW 1003,8 19
24.09.2020 05:00:00 11,3 9,2 18 10 - - ZW 1003,6 20
24.09.2020 04:00:00 11,8 9,8 18 10 25 14 ZW 1003,1 19
24.09.2020 03:00:00 12,1 10,4 18 10 29 16 ZW 1002,3 19
24.09.2020 02:00:00 13,0 10,8 18 10 - - ZW 1001,5 20
24.09.2020 01:00:00 13,8 11,4 22 12 61 33 WZW 1001,0 20
24.09.2020 00:00:00 16,2 15,2 18 10 36 19 ZZW 999,9 20
23.09.2020 23:00:00 16,5 15,6 18 10 - - ZZW 1000,2 9
23.09.2020 22:00:00 16,9 14,9 18 10 36 19 ZZW 1000,2 20
23.09.2020 21:00:00 17,5 14,9 11 6 25 14 Z 1000,3 4,7
23.09.2020 20:00:00 17,5 14,7 14 8 - - Z 1001,2 20
23.09.2020 19:00:00 19,8 13,4 25 14 43 23 Z 1001,7 20
23.09.2020 18:00:00 21,2 12,2 25 14 40 21 ZZW 1002,2 3,0
23.09.2020 17:00:00 21,5 11,1 26 14 - - ZZW 1002,8 3,7
23.09.2020 16:00:00 21,8 10,5 25 14 40 21 ZW 1003,5 12
23.09.2020 15:00:00 20,8 11,0 29 16 47 25 ZW 1004,1 17
23.09.2020 14:00:00 21,8 12,0 29 16 - - ZZW 1004,2 13
23.09.2020 13:00:00 22,1 13,5 25 14 40 21 ZZW 1004,6 18
23.09.2020 12:00:00 20,0 13,6 25 14 40 21 ZZW 1005,2 19
23.09.2020 11:00:00 19,3 13,2 22 12 - - ZZW 1005,5 20
23.09.2020 10:00:00 17,7 13,2 18 10 32 18 ZZW 1005,7 17
23.09.2020 09:00:00 16,2 13,0 14 8 25 14 ZZW 1005,7 9
23.09.2020 08:00:00 15,0 12,6 11 6 - - Z 1005,7 9
23.09.2020 07:00:00 13,8 11,4 7 4 11 6 Z 1006,1 9
23.09.2020 06:00:00 12,8 10,5 7 4 11 6 Z 1006,2 8
23.09.2020 05:00:00 12,8 9,8 7 4 - - Z 1006,6 10
23.09.2020 04:00:00 11,3 8,7 7 4 11 6 Z 1006,7 9
23.09.2020 03:00:00 11,4 8,8 7 4 11 6 Z 1007,2 11
23.09.2020 02:00:00 11,8 8,3 7 4 - - Z 1007,3 14
23.09.2020 01:00:00 12,6 8,2 4 2 14 8 N 1007,7 14
23.09.2020 00:00:00 12,3 8,4 7 4 7 4 ZW 1007,8 9
22.09.2020 23:00:00 13,0 8,4 4 2 - - N 1007,8 8
22.09.2020 22:00:00 13,3 8,8 4 2 7 4 N 1007,7 9
22.09.2020 21:00:00 12,8 8,7 4 2 4 2 N 1007,7 14
22.09.2020 20:00:00 15,3 9,4 4 2 - - N 1007,7 15
22.09.2020 19:00:00 20,9 8,6 4 2 14 8 N 1007,8 13
22.09.2020 18:00:00 22,7 8,4 11 6 18 10 WZW 1008,1 5
22.09.2020 17:00:00 23,3 9,2 4 2 - - N 1008,7 11
22.09.2020 16:00:00 22,8 9,7 7 4 14 8 W 1009,5 8
22.09.2020 15:00:00 22,1 11,6 4 2 14 8 N 1010,2 10
22.09.2020 14:00:00 20,6 12,3 4 2 - - N 1010,8 7
22.09.2020 13:00:00 18,9 13,1 4 2 11 6 N 1011,5 6
22.09.2020 12:00:00 14,6 13,4 4 2 7 4 N 1012,1 2,5
22.09.2020 11:00:00 11,9 11,9 4 2 - - N 1012,7 0,2
22.09.2020 10:00:00 10,9 10,9 4 2 7 4 N 1013,0 0,1
22.09.2020 09:00:00 10,5 10,5 4 2 4 2 N 1012,7 -
22.09.2020 08:00:00 9,8 9,7 4 2 - - N 1012,6 -
22.09.2020 07:00:00 9,1 9,1 4 2 7 4 N 1012,8 -
22.09.2020 06:00:00 9,2 9,2 4 2 7 4 N 1012,8 -
22.09.2020 05:00:00 7,7 7,7 4 2 - - N 1013,2 -
22.09.2020 04:00:00 7,4 6,9 4 2 4 2 N 1013,7 -
22.09.2020 03:00:00 7,8 6,8 4 2 4 2 N 1014,0 4,1
22.09.2020 02:00:00 9,1 8,2 2 1 - - - 1014,2 3,6
22.09.2020 01:00:00 9,7 8,3 4 2 4 2 N 1014,7 6
22.09.2020 00:00:00 11,5 9,4 4 2 4 2 N 1014,7 9
21.09.2020 23:00:00 12,0 8,6 4 2 - - N 1015,0 14
21.09.2020 22:00:00 13,4 9,0 7 4 11 6 N 1014,7 14
21.09.2020 21:00:00 15,4 9,1 11 6 11 6 N 1014,6 15
21.09.2020 20:00:00 17,5 7,9 9 5 - - N 1014,2 6
21.09.2020 19:00:00 21,7 8,0 7 4 14 8 NNW 1014,3 19
21.09.2020 18:00:00 23,6 6,2 7 4 14 8 N 1014,2 20
21.09.2020 17:00:00 24,5 6,0 4 2 - - N 1014,7 20
21.09.2020 16:00:00 23,9 5,0 4 2 11 6 N 1015,1 20
21.09.2020 15:00:00 23,8 5,4 4 2 11 6 N 1015,3 17
21.09.2020 14:00:00 22,6 8,3 4 2 - - N 1015,8 16
21.09.2020 13:00:00 20,8 9,5 7 4 14 8 N 1016,3 18
21.09.2020 12:00:00 18,8 9,2 7 4 14 8 N 1016,6 11

tt = temperatuur
td = dauwpunt
ff = windsnelheid
fx = windstoten
dd = windrichting
ppp = luchtdruk
vv = zicht

Weerstations in de omgeving